owner,sensor,date,latitude,longitude,vertical_datum,sea_water_temperature,qcFlag
BP,ioos:station:wmo:42369:2,2021-08-01T00:19:00Z,27.2167,-90.2841,555.3,9.6,11113222
BP,ioos:station:wmo:42369:2,2021-08-01T00:59:00Z,27.2166,-90.2842,555.7,9.8,11113222
BP,ioos:station:wmo:42369:2,2021-08-01T01:19:00Z,27.2166,-90.2842,556.5,9.8,11113222
BP,ioos:station:wmo:42369:2,2021-08-01T01:39:00Z,27.2166,-90.2842,557.6,9.8,11113222
BP,ioos:station:wmo:42369:2,2021-08-01T01:59:00Z,27.2165,-90.2844,555.4,9.8,11113222
BP,ioos:station:wmo:42369:2,2021-08-01T02:19:00Z,27.2164,-90.2846,555.8,9.7,11113222
BP,ioos:station:wmo:42369:2,2021-08-01T02:39:00Z,27.2164,-90.2848,554.6,9.7,11113222
BP,ioos:station:wmo:42369:2,2021-08-01T02:59:00Z,27.2164,-90.2851,553.6,9.7,11113222
BP,ioos:station:wmo:42369:2,2021-08-01T03:19:00Z,27.2164,-90.2851,552.0,9.6,11113222
BP,ioos:station:wmo:42369:2,2021-08-01T03:39:00Z,27.2164,-90.2851,550.4,9.7,11113222
BP,ioos:station:wmo:42369:2,2021-08-01T03:59:00Z,27.2164,-90.2852,547.8,9.7,11113222
BP,ioos:station:wmo:42369:2,2021-08-01T04:19:00Z,27.2164,-90.2852,547.2,9.7,11113222
BP,ioos:station:wmo:42369:2,2021-08-01T04:39:00Z,27.2164,-90.2852,549.1,9.8,11113222
BP,ioos:station:wmo:42369:2,2021-08-01T04:59:00Z,27.2164,-90.2853,550.6,9.6,11113222
BP,ioos:station:wmo:42369:2,2021-08-01T05:19:00Z,27.2164,-90.2853,552.1,9.6,11113222
BP,ioos:station:wmo:42369:2,2021-08-01T05:39:00Z,27.2164,-90.2853,553.3,9.6,11113222
BP,ioos:station:wmo:42369:2,2021-08-01T05:59:00Z,27.2164,-90.2853,553.7,9.6,11113222
BP,ioos:station:wmo:42369:2,2021-08-01T06:19:00Z,27.2164,-90.2854,555.0,9.6,11113222
BP,ioos:station:wmo:42369:2,2021-08-01T06:39:00Z,27.2164,-90.2854,554.9,9.6,11113222
BP,ioos:station:wmo:42369:2,2021-08-01T06:59:00Z,27.2164,-90.2854,555.6,9.6,11113222
BP,ioos:station:wmo:42369:2,2021-08-01T07:19:00Z,27.2164,-90.2855,556.4,9.6,11113222
BP,ioos:station:wmo:42369:2,2021-08-01T07:39:00Z,27.2164,-90.2855,558.5,9.5,11113222
BP,ioos:station:wmo:42369:2,2021-08-01T07:59:00Z,27.2164,-90.2855,557.8,9.6,11113222
BP,ioos:station:wmo:42369:2,2021-08-01T08:19:00Z,27.2164,-90.2855,559.4,9.6,11113222
BP,ioos:station:wmo:42369:2,2021-08-01T08:39:00Z,27.2164,-90.2856,560.0,9.5,11113222
BP,ioos:station:wmo:42369:2,2021-08-01T08:59:00Z,27.2164,-90.2856,561.7,9.4,11113222
BP,ioos:station:wmo:42369:2,2021-08-01T09:19:00Z,27.2163,-90.2857,561.5,9.4,11113222
BP,ioos:station:wmo:42369:2,2021-08-01T09:39:00Z,27.2163,-90.2857,561.9,9.5,11113222
BP,ioos:station:wmo:42369:2,2021-08-01T09:59:00Z,27.2163,-90.2858,562.1,9.4,11113222
BP,ioos:station:wmo:42369:2,2021-08-01T10:19:00Z,27.2163,-90.2858,564.0,9.5,11113222
BP,ioos:station:wmo:42369:2,2021-08-01T10:39:00Z,27.2163,-90.2859,564.0,9.5,11113222
BP,ioos:station:wmo:42369:2,2021-08-01T10:59:00Z,27.2163,-90.2859,563.8,9.5,11113222
BP,ioos:station:wmo:42369:2,2021-08-01T11:19:00Z,27.2163,-90.2860,566.0,9.6,11113222
BP,ioos:station:wmo:42369:2,2021-08-01T11:39:00Z,27.2163,-90.2861,567.3,9.5,11113222
BP,ioos:station:wmo:42369:2,2021-08-01T11:59:00Z,27.2163,-90.2861,568.9,9.5,11113222
BP,ioos:station:wmo:42369:2,2021-08-01T12:19:00Z,27.2163,-90.2862,571.1,9.4,11113222
BP,ioos:station:wmo:42369:2,2021-08-01T12:39:00Z,27.2163,-90.2862,573.5,9.3,11113222
BP,ioos:station:wmo:42369:2,2021-08-01T12:59:00Z,27.2163,-90.2863,574.9,9.4,11113222
BP,ioos:station:wmo:42369:2,2021-08-01T13:19:00Z,27.2163,-90.2863,577.0,9.3,11113222
BP,ioos:station:wmo:42369:2,2021-08-01T13:39:00Z,27.2163,-90.2864,577.8,9.3,11113222
BP,ioos:station:wmo:42369:2,2021-08-01T13:59:00Z,27.2163,-90.2864,579.2,9.2,11113222
BP,ioos:station:wmo:42369:2,2021-08-01T14:19:00Z,27.2163,-90.2864,580.3,9.1,11113222
BP,ioos:station:wmo:42369:2,2021-08-01T14:39:00Z,27.2163,-90.2864,579.7,9.1,11113222
BP,ioos:station:wmo:42369:2,2021-08-01T14:59:00Z,27.2163,-90.2865,580.7,9.0,11113222
BP,ioos:station:wmo:42369:2,2021-08-01T15:19:00Z,27.2163,-90.2865,581.8,9.0,11113222
BP,ioos:station:wmo:42369:2,2021-08-01T15:39:00Z,27.2163,-90.2865,582.3,8.9,11113222
BP,ioos:station:wmo:42369:2,2021-08-01T15:59:00Z,27.2163,-90.2866,581.3,9.1,11113222
BP,ioos:station:wmo:42369:2,2021-08-01T16:19:00Z,27.2163,-90.2865,581.0,9.1,11113222
BP,ioos:station:wmo:42369:2,2021-08-01T16:39:00Z,27.2163,-90.2865,581.2,9.1,11113222
BP,ioos:station:wmo:42369:2,2021-08-01T16:59:00Z,27.2163,-90.2865,581.9,9.1,11113222
BP,ioos:station:wmo:42369:2,2021-08-01T17:19:00Z,27.2163,-90.2865,582.4,9.0,11113222
BP,ioos:station:wmo:42369:2,2021-08-01T17:39:00Z,27.2164,-90.2865,582.1,8.9,11113222
BP,ioos:station:wmo:42369:2,2021-08-01T17:59:00Z,27.2158,-90.2875,583.3,8.9,11113222
BP,ioos:station:wmo:42369:2,2021-08-01T18:19:00Z,27.2158,-90.2877,583.3,8.9,11113222
BP,ioos:station:wmo:42369:2,2021-08-01T18:39:00Z,27.2157,-90.2878,583.4,8.8,11113222
BP,ioos:station:wmo:42369:2,2021-08-01T18:59:00Z,27.2156,-90.2880,582.6,8.8,11113222
BP,ioos:station:wmo:42369:2,2021-08-01T19:19:00Z,27.2156,-90.2880,582.9,8.8,11113222
BP,ioos:station:wmo:42369:2,2021-08-01T19:39:00Z,27.2155,-90.2881,582.2,8.8,11113222
BP,ioos:station:wmo:42369:2,2021-08-01T19:59:00Z,27.2155,-90.2882,581.1,8.8,11113222
BP,ioos:station:wmo:42369:2,2021-08-01T20:19:00Z,27.2155,-90.2883,580.7,8.8,11113222
BP,ioos:station:wmo:42369:2,2021-08-01T20:39:00Z,27.2155,-90.2883,580.0,8.8,11113222
BP,ioos:station:wmo:42369:2,2021-08-01T20:59:00Z,27.2154,-90.2884,579.6,8.8,11113222
BP,ioos:station:wmo:42369:2,2021-08-01T21:19:00Z,27.2154,-90.2884,579.3,8.8,11113222
BP,ioos:station:wmo:42369:2,2021-08-01T21:39:00Z,27.2154,-90.2885,579.0,8.8,11113222
BP,ioos:station:wmo:42369:2,2021-08-01T21:59:00Z,27.2153,-90.2886,578.0,8.8,11113222
BP,ioos:station:wmo:42369:2,2021-08-01T22:19:00Z,27.2153,-90.2886,576.7,8.9,11113222
BP,ioos:station:wmo:42369:2,2021-08-01T22:39:00Z,27.2153,-90.2886,576.1,8.9,11113222
BP,ioos:station:wmo:42369:2,2021-08-01T22:59:00Z,27.2153,-90.2886,575.2,8.9,11113222
BP,ioos:station:wmo:42369:2,2021-08-01T23:19:00Z,27.2153,-90.2887,574.7,8.8,11113222
BP,ioos:station:wmo:42369:2,2021-08-01T23:39:00Z,27.2153,-90.2887,575.4,8.8,11113222
BP,ioos:station:wmo:42369:2,2021-08-01T23:59:00Z,27.2152,-90.2887,574.6,8.8,11113222
BP,ioos:station:wmo:42369:2,2021-08-02T00:19:00Z,27.2152,-90.2887,575.3,8.6,11113222
BP,ioos:station:wmo:42369:2,2021-08-02T00:39:00Z,27.2152,-90.2888,574.2,8.6,11113222
BP,ioos:station:wmo:42369:2,2021-08-02T00:59:00Z,27.2152,-90.2888,574.9,8.6,11113222
BP,ioos:station:wmo:42369:2,2021-08-02T01:19:00Z,27.2152,-90.2888,574.7,8.5,11113222
BP,ioos:station:wmo:42369:2,2021-08-02T01:39:00Z,27.2153,-90.2888,575.8,8.5,11113222
BP,ioos:station:wmo:42369:2,2021-08-02T01:59:00Z,27.2153,-90.2889,576.5,8.5,11113222
BP,ioos:station:wmo:42369:2,2021-08-02T02:19:00Z,27.2153,-90.2889,575.1,8.5,11113222
BP,ioos:station:wmo:42369:2,2021-08-02T02:39:00Z,27.2153,-90.2889,574.5,8.6,11113222
BP,ioos:station:wmo:42369:2,2021-08-02T02:59:00Z,27.2153,-90.2889,576.1,8.5,11113222
BP,ioos:station:wmo:42369:2,2021-08-02T03:19:00Z,27.2153,-90.2889,576.8,8.3,11113222
BP,ioos:station:wmo:42369:2,2021-08-02T03:39:00Z,27.2153,-90.2889,577.1,8.1,11113222
BP,ioos:station:wmo:42369:2,2021-08-02T03:59:00Z,27.2153,-90.2889,577.0,8.1,11113222
BP,ioos:station:wmo:42369:2,2021-08-02T04:19:00Z,27.2153,-90.2890,577.9,8.1,11113222
BP,ioos:station:wmo:42369:2,2021-08-02T04:39:00Z,27.2152,-90.2891,579.3,8.1,11113222
BP,ioos:station:wmo:42369:2,2021-08-02T04:59:00Z,27.2152,-90.2891,582.9,8.1,11113222
BP,ioos:station:wmo:42369:2,2021-08-02T05:19:00Z,27.2152,-90.2891,585.8,8.1,11113222
BP,ioos:station:wmo:42369:2,2021-08-02T05:39:00Z,27.2152,-90.2891,587.1,8.0,11113222
BP,ioos:station:wmo:42369:2,2021-08-02T05:59:00Z,27.2152,-90.2891,588.0,8.0,11113222
BP,ioos:station:wmo:42369:2,2021-08-02T06:19:00Z,27.2152,-90.2891,588.8,7.9,11113222
BP,ioos:station:wmo:42369:2,2021-08-02T06:39:00Z,27.2152,-90.2891,590.7,7.9,11113222
BP,ioos:station:wmo:42369:2,2021-08-02T06:59:00Z,27.2152,-90.2891,591.2,7.9,11113222
BP,ioos:station:wmo:42369:2,2021-08-02T07:19:00Z,27.2152,-90.2891,593.4,8.0,11113222
BP,ioos:station:wmo:42369:2,2021-08-02T07:39:00Z,27.2152,-90.2891,593.9,8.0,11113222
BP,ioos:station:wmo:42369:2,2021-08-02T07:59:00Z,27.2152,-90.2892,594.8,8.0,11113222
BP,ioos:station:wmo:42369:2,2021-08-02T08:19:00Z,27.2152,-90.2892,594.2,8.0,11113222
BP,ioos:station:wmo:42369:2,2021-08-02T08:39:00Z,27.2152,-90.2892,594.6,7.9,11113222
BP,ioos:station:wmo:42369:2,2021-08-02T08:59:00Z,27.2152,-90.2892,593.7,7.9,11113222
BP,ioos:station:wmo:42369:2,2021-08-02T09:19:00Z,27.2152,-90.2892,594.0,7.8,11113222
BP,ioos:station:wmo:42369:2,2021-08-02T09:39:00Z,27.2152,-90.2892,593.6,7.8,11113222
BP,ioos:station:wmo:42369:2,2021-08-02T09:59:00Z,27.2152,-90.2892,593.6,7.8,11113222
BP,ioos:station:wmo:42369:2,2021-08-02T10:19:00Z,27.2153,-90.2890,594.1,7.8,11113222
BP,ioos:station:wmo:42369:2,2021-08-02T10:39:00Z,27.2153,-90.2890,591.8,7.8,11113222
BP,ioos:station:wmo:42369:2,2021-08-02T10:59:00Z,27.2153,-90.2889,591.6,7.8,11113222
BP,ioos:station:wmo:42369:2,2021-08-02T11:19:00Z,27.2154,-90.2888,591.3,7.8,11113222
BP,ioos:station:wmo:42369:2,2021-08-02T11:39:00Z,27.2155,-90.2887,592.5,7.7,11113222
BP,ioos:station:wmo:42369:2,2021-08-02T11:59:00Z,27.2155,-90.2886,593.3,7.8,11113222
BP,ioos:station:wmo:42369:2,2021-08-02T12:19:00Z,27.2157,-90.2885,594.5,7.8,11113222
BP,ioos:station:wmo:42369:2,2021-08-02T12:39:00Z,27.2157,-90.2884,595.3,7.8,11113222
BP,ioos:station:wmo:42369:2,2021-08-02T12:59:00Z,27.2158,-90.2882,596.2,7.8,11113222
BP,ioos:station:wmo:42369:2,2021-08-02T13:19:00Z,27.2158,-90.2882,595.1,7.8,11113222
BP,ioos:station:wmo:42369:2,2021-08-02T13:39:00Z,27.2158,-90.2882,596.5,7.8,11113222
BP,ioos:station:wmo:42369:2,2021-08-02T13:59:00Z,27.2157,-90.2883,596.3,7.8,11113222
BP,ioos:station:wmo:42369:2,2021-08-02T14:19:00Z,27.2158,-90.2882,597.0,7.9,11113222
BP,ioos:station:wmo:42369:2,2021-08-02T14:39:00Z,27.2158,-90.2881,597.2,7.8,11113222
BP,ioos:station:wmo:42369:2,2021-08-02T14:59:00Z,27.2157,-90.2880,595.4,7.8,11113222
BP,ioos:station:wmo:42369:2,2021-08-02T15:19:00Z,27.2155,-90.2881,595.2,7.8,11113222
BP,ioos:station:wmo:42369:2,2021-08-02T15:39:00Z,27.2153,-90.2884,595.1,7.7,11113222
BP,ioos:station:wmo:42369:2,2021-08-02T15:59:00Z,27.2153,-90.2884,594.6,7.7,11113222
BP,ioos:station:wmo:42369:2,2021-08-02T16:19:00Z,27.2152,-90.2885,592.6,7.8,11113222
BP,ioos:station:wmo:42369:2,2021-08-02T16:39:00Z,27.2152,-90.2885,595.2,7.7,11113222
BP,ioos:station:wmo:42369:2,2021-08-02T16:59:00Z,27.2153,-90.2883,598.1,7.7,11113222
BP,ioos:station:wmo:42369:2,2021-08-02T17:19:00Z,27.2153,-90.2883,594.9,7.8,11113222
BP,ioos:station:wmo:42369:2,2021-08-02T17:39:00Z,27.2153,-90.2881,592.9,7.8,11113222
BP,ioos:station:wmo:42369:2,2021-08-02T18:19:00Z,27.2154,-90.2881,591.9,7.7,11113222
BP,ioos:station:wmo:42369:2,2021-08-02T18:39:00Z,27.2154,-90.2881,590.4,7.8,11113222
BP,ioos:station:wmo:42369:2,2021-08-02T18:59:00Z,27.2153,-90.2881,586.7,7.8,11113222
BP,ioos:station:wmo:42369:2,2021-08-02T19:19:00Z,27.2153,-90.2881,582.7,7.8,11113222
BP,ioos:station:wmo:42369:2,2021-08-02T19:39:00Z,27.2152,-90.2881,578.8,7.8,11113222
BP,ioos:station:wmo:42369:2,2021-08-02T19:59:00Z,27.2152,-90.2881,574.4,7.8,11113222
BP,ioos:station:wmo:42369:2,2021-08-02T20:19:00Z,27.2151,-90.2881,569.9,7.9,11113222
BP,ioos:station:wmo:42369:2,2021-08-02T20:39:00Z,27.2150,-90.2881,564.4,7.9,11113222
BP,ioos:station:wmo:42369:2,2021-08-02T20:59:00Z,27.2150,-90.2882,560.7,8.0,11113222
BP,ioos:station:wmo:42369:2,2021-08-02T21:19:00Z,27.2150,-90.2882,562.3,7.9,11113222
BP,ioos:station:wmo:42369:2,2021-08-02T21:39:00Z,27.2150,-90.2882,560.6,7.9,11113222
BP,ioos:station:wmo:42369:2,2021-08-02T21:59:00Z,27.2149,-90.2882,558.1,8.0,11113222
BP,ioos:station:wmo:42369:2,2021-08-02T22:19:00Z,27.2149,-90.2882,552.5,8.0,11113222
BP,ioos:station:wmo:42369:2,2021-08-02T22:39:00Z,27.2149,-90.2883,547.2,8.0,11113222
BP,ioos:station:wmo:42369:2,2021-08-02T22:59:00Z,27.2149,-90.2883,541.4,8.2,11113222
BP,ioos:station:wmo:42369:2,2021-08-02T23:19:00Z,27.2148,-90.2884,535.9,8.3,11113222
BP,ioos:station:wmo:42369:2,2021-08-02T23:39:00Z,27.2148,-90.2884,532.8,8.3,11113222
BP,ioos:station:wmo:42369:2,2021-08-02T23:59:00Z,27.2148,-90.2884,531.9,8.4,11113222
BP,ioos:station:wmo:42369:2,2021-08-03T00:19:00Z,27.2148,-90.2884,531.2,8.4,11113222
BP,ioos:station:wmo:42369:2,2021-08-03T00:39:00Z,27.2148,-90.2884,531.1,8.3,11113222
BP,ioos:station:wmo:42369:2,2021-08-03T00:59:00Z,27.2149,-90.2884,530.1,8.3,11113222
BP,ioos:station:wmo:42369:2,2021-08-03T01:19:00Z,27.2149,-90.2884,530.8,8.3,11113222
BP,ioos:station:wmo:42369:2,2021-08-03T01:39:00Z,27.2149,-90.2884,531.5,8.2,11113222
BP,ioos:station:wmo:42369:2,2021-08-03T01:59:00Z,27.2149,-90.2884,531.0,8.2,11113222
BP,ioos:station:wmo:42369:2,2021-08-03T02:19:00Z,27.2148,-90.2884,529.9,8.1,11113222
BP,ioos:station:wmo:42369:2,2021-08-03T02:39:00Z,27.2148,-90.2885,527.6,8.3,11113222
BP,ioos:station:wmo:42369:2,2021-08-03T02:59:00Z,27.2147,-90.2886,530.8,8.4,11113222
BP,ioos:station:wmo:42369:2,2021-08-03T03:19:00Z,27.2147,-90.2886,527.9,8.4,11113222
BP,ioos:station:wmo:42369:2,2021-08-03T03:39:00Z,27.2146,-90.2886,527.5,8.4,11113222
BP,ioos:station:wmo:42369:2,2021-08-03T03:59:00Z,27.2145,-90.2887,526.7,8.4,11113222
BP,ioos:station:wmo:42369:2,2021-08-03T04:19:00Z,27.2144,-90.2887,524.6,8.4,11113222
BP,ioos:station:wmo:42369:2,2021-08-03T04:39:00Z,27.2144,-90.2887,519.6,8.5,11113222
BP,ioos:station:wmo:42369:2,2021-08-03T04:59:00Z,27.2144,-90.2886,519.5,8.4,11113222
BP,ioos:station:wmo:42369:2,2021-08-03T05:19:00Z,27.2144,-90.2884,515.3,8.5,11113222
BP,ioos:station:wmo:42369:2,2021-08-03T05:39:00Z,27.2144,-90.2884,513.0,8.5,11113222
BP,ioos:station:wmo:42369:2,2021-08-03T05:59:00Z,27.2144,-90.2884,514.0,8.5,11113222
BP,ioos:station:wmo:42369:2,2021-08-03T06:19:00Z,27.2144,-90.2885,513.8,8.5,11113222
BP,ioos:station:wmo:42369:2,2021-08-03T06:39:00Z,27.2143,-90.2886,513.1,8.5,11113222
BP,ioos:station:wmo:42369:2,2021-08-03T06:59:00Z,27.2143,-90.2886,512.3,8.5,11113222
BP,ioos:station:wmo:42369:2,2021-08-03T07:19:00Z,27.2142,-90.2886,509.5,8.6,11113222
BP,ioos:station:wmo:42369:2,2021-08-03T07:39:00Z,27.2141,-90.2887,508.0,8.6,11113222
BP,ioos:station:wmo:42369:2,2021-08-03T07:59:00Z,27.2140,-90.2888,507.3,8.5,11113222
BP,ioos:station:wmo:42369:2,2021-08-03T08:19:00Z,27.2139,-90.2888,506.0,8.5,11113222
BP,ioos:station:wmo:42369:2,2021-08-03T08:39:00Z,27.2140,-90.2886,505.1,8.4,11113222
BP,ioos:station:wmo:42369:2,2021-08-03T08:59:00Z,27.2141,-90.2885,504.1,8.4,11113222
BP,ioos:station:wmo:42369:2,2021-08-03T09:19:00Z,27.2141,-90.2885,504.0,8.3,11113222
BP,ioos:station:wmo:42369:2,2021-08-03T09:39:00Z,27.2141,-90.2885,504.7,8.3,11113222
BP,ioos:station:wmo:42369:2,2021-08-03T09:59:00Z,27.2140,-90.2886,504.7,8.3,11113222
BP,ioos:station:wmo:42369:2,2021-08-03T10:19:00Z,27.2139,-90.2885,501.0,8.3,11113222
BP,ioos:station:wmo:42369:2,2021-08-03T10:39:00Z,27.2139,-90.2886,500.2,8.4,11113222
BP,ioos:station:wmo:42369:2,2021-08-03T10:59:00Z,27.2138,-90.2886,497.6,8.4,11113222
BP,ioos:station:wmo:42369:2,2021-08-03T11:19:00Z,27.2138,-90.2887,497.8,8.4,11113222
BP,ioos:station:wmo:42369:2,2021-08-03T11:39:00Z,27.2138,-90.2886,496.1,8.4,11113222
BP,ioos:station:wmo:42369:2,2021-08-03T11:59:00Z,27.2138,-90.2886,494.3,8.4,11113222
BP,ioos:station:wmo:42369:2,2021-08-03T12:19:00Z,27.2137,-90.2885,492.5,8.4,11113222
BP,ioos:station:wmo:42369:2,2021-08-03T12:39:00Z,27.2136,-90.2885,490.0,8.5,11113222
BP,ioos:station:wmo:42369:2,2021-08-03T12:59:00Z,27.2136,-90.2884,488.2,8.4,11113222
BP,ioos:station:wmo:42369:2,2021-08-03T13:19:00Z,27.2136,-90.2883,486.2,8.5,11113222
BP,ioos:station:wmo:42369:2,2021-08-03T13:39:00Z,27.2136,-90.2883,484.9,8.5,11113222
BP,ioos:station:wmo:42369:2,2021-08-03T13:59:00Z,27.2135,-90.2883,483.2,8.5,11113222
BP,ioos:station:wmo:42369:2,2021-08-03T14:19:00Z,27.2135,-90.2882,481.0,8.5,11113222
BP,ioos:station:wmo:42369:2,2021-08-03T14:39:00Z,27.2134,-90.2881,477.9,8.6,11113222
BP,ioos:station:wmo:42369:2,2021-08-03T14:59:00Z,27.2134,-90.2880,476.5,8.6,11113222
BP,ioos:station:wmo:42369:2,2021-08-03T15:19:00Z,27.2134,-90.2879,473.7,8.6,11113222
BP,ioos:station:wmo:42369:2,2021-08-03T15:39:00Z,27.2134,-90.2878,472.3,8.6,11113222
BP,ioos:station:wmo:42369:2,2021-08-03T15:59:00Z,27.2134,-90.2877,470.6,8.6,11113222
BP,ioos:station:wmo:42369:2,2021-08-03T16:19:00Z,27.2134,-90.2877,468.4,8.6,11113222
BP,ioos:station:wmo:42369:2,2021-08-03T16:39:00Z,27.2134,-90.2875,467.8,8.6,11113222
BP,ioos:station:wmo:42369:2,2021-08-03T16:59:00Z,27.2135,-90.2874,467.4,8.6,11113222
BP,ioos:station:wmo:42369:2,2021-08-03T17:19:00Z,27.2135,-90.2873,467.4,8.5,11113222
BP,ioos:station:wmo:42369:2,2021-08-03T17:39:00Z,27.2136,-90.2871,467.3,8.5,11113222
BP,ioos:station:wmo:42369:2,2021-08-03T17:59:00Z,27.2137,-90.2871,466.4,8.6,11113222
BP,ioos:station:wmo:42369:2,2021-08-03T18:19:00Z,27.2136,-90.2870,465.7,8.5,11113222
BP,ioos:station:wmo:42369:2,2021-08-03T18:39:00Z,27.2137,-90.2870,466.2,8.4,11113222
BP,ioos:station:wmo:42369:2,2021-08-03T18:59:00Z,27.2136,-90.2870,464.6,8.4,11113222
BP,ioos:station:wmo:42369:2,2021-08-03T19:19:00Z,27.2135,-90.2872,464.3,8.5,11113222
BP,ioos:station:wmo:42369:2,2021-08-03T19:39:00Z,27.2134,-90.2874,464.4,8.5,11113222
BP,ioos:station:wmo:42369:2,2021-08-03T19:59:00Z,27.2133,-90.2875,464.1,8.6,11113222
BP,ioos:station:wmo:42369:2,2021-08-03T20:19:00Z,27.2133,-90.2876,464.1,8.5,11113222
BP,ioos:station:wmo:42369:2,2021-08-03T20:39:00Z,27.2132,-90.2877,463.4,8.5,11113222
BP,ioos:station:wmo:42369:2,2021-08-03T20:59:00Z,27.2132,-90.2876,461.9,8.6,11113222
BP,ioos:station:wmo:42369:2,2021-08-03T21:19:00Z,27.2131,-90.2876,461.6,8.5,11113222
BP,ioos:station:wmo:42369:2,2021-08-03T21:39:00Z,27.2130,-90.2877,461.0,8.5,11113222
BP,ioos:station:wmo:42369:2,2021-08-03T21:59:00Z,27.2129,-90.2878,459.4,8.5,11113222
BP,ioos:station:wmo:42369:2,2021-08-03T22:19:00Z,27.2128,-90.2879,458.5,8.4,11113222
BP,ioos:station:wmo:42369:2,2021-08-03T22:39:00Z,27.2127,-90.2880,459.3,8.4,11113222
BP,ioos:station:wmo:42369:2,2021-08-03T22:59:00Z,27.2126,-90.2882,459.1,8.4,11113222
BP,ioos:station:wmo:42369:2,2021-08-03T23:19:00Z,27.2125,-90.2883,458.9,8.4,11113222
BP,ioos:station:wmo:42369:2,2021-08-03T23:39:00Z,27.2124,-90.2884,459.1,8.4,11113222
BP,ioos:station:wmo:42369:2,2021-08-03T23:59:00Z,27.2123,-90.2884,457.9,8.4,11113222
BP,ioos:station:wmo:42369:2,2021-08-04T00:19:00Z,27.2123,-90.2883,456.9,8.4,11113222
BP,ioos:station:wmo:42369:2,2021-08-04T00:39:00Z,27.2123,-90.2883,455.5,8.4,11113222
BP,ioos:station:wmo:42369:2,2021-08-04T00:59:00Z,27.2123,-90.2882,454.9,8.4,11113222
BP,ioos:station:wmo:42369:2,2021-08-04T01:19:00Z,27.2122,-90.2882,454.1,8.3,11113222
BP,ioos:station:wmo:42369:2,2021-08-04T01:39:00Z,27.2122,-90.2882,454.2,8.3,11113222
BP,ioos:station:wmo:42369:2,2021-08-04T01:59:00Z,27.2122,-90.2883,453.4,8.3,11113222
BP,ioos:station:wmo:42369:2,2021-08-04T02:19:00Z,27.2121,-90.2883,454.2,8.3,11113222
BP,ioos:station:wmo:42369:2,2021-08-04T02:39:00Z,27.2120,-90.2884,454.5,8.2,11113222
BP,ioos:station:wmo:42369:2,2021-08-04T02:59:00Z,27.2120,-90.2884,454.7,8.3,11113222
BP,ioos:station:wmo:42369:2,2021-08-04T03:19:00Z,27.2119,-90.2886,454.5,8.3,11113222
BP,ioos:station:wmo:42369:2,2021-08-04T03:39:00Z,27.2118,-90.2886,454.1,8.3,11113222
BP,ioos:station:wmo:42369:2,2021-08-04T03:59:00Z,27.2118,-90.2887,454.2,8.2,11113222
BP,ioos:station:wmo:42369:2,2021-08-04T04:19:00Z,27.2117,-90.2887,454.6,8.2,11113222
BP,ioos:station:wmo:42369:2,2021-08-04T04:39:00Z,27.2118,-90.2886,454.5,8.1,11113222
BP,ioos:station:wmo:42369:2,2021-08-04T04:59:00Z,27.2119,-90.2886,454.6,8.1,11113222
BP,ioos:station:wmo:42369:2,2021-08-04T05:19:00Z,27.2119,-90.2886,454.4,8.1,11113222
BP,ioos:station:wmo:42369:2,2021-08-04T05:39:00Z,27.2120,-90.2885,455.2,8.1,11113222
BP,ioos:station:wmo:42369:2,2021-08-04T05:59:00Z,27.2123,-90.2882,455.9,8.1,11113222
BP,ioos:station:wmo:42369:2,2021-08-04T06:19:00Z,27.2126,-90.2880,456.7,8.1,11113222
BP,ioos:station:wmo:42369:2,2021-08-04T06:39:00Z,27.2127,-90.2879,457.4,8.0,11113222
BP,ioos:station:wmo:42369:2,2021-08-04T06:59:00Z,27.2128,-90.2878,457.2,8.0,11113222
BP,ioos:station:wmo:42369:2,2021-08-04T07:19:00Z,27.2129,-90.2876,457.7,8.0,11113222
BP,ioos:station:wmo:42369:2,2021-08-04T07:39:00Z,27.2129,-90.2875,458.1,8.0,11113222
BP,ioos:station:wmo:42369:2,2021-08-04T07:59:00Z,27.2129,-90.2875,457.9,7.9,11113222
BP,ioos:station:wmo:42369:2,2021-08-04T08:19:00Z,27.2130,-90.2875,457.5,7.9,11113222
BP,ioos:station:wmo:42369:2,2021-08-04T08:39:00Z,27.2130,-90.2875,456.5,7.9,11113222
BP,ioos:station:wmo:42369:2,2021-08-04T08:59:00Z,27.2128,-90.2875,455.1,7.8,11113222
BP,ioos:station:wmo:42369:2,2021-08-04T09:19:00Z,27.2128,-90.2875,455.9,7.8,11113222
BP,ioos:station:wmo:42369:2,2021-08-04T09:39:00Z,27.2129,-90.2874,455.9,7.8,11113222
BP,ioos:station:wmo:42369:2,2021-08-04T09:59:00Z,27.2130,-90.2874,456.3,7.8,11113222
BP,ioos:station:wmo:42369:2,2021-08-04T10:19:00Z,27.2130,-90.2873,456.9,7.8,11113222
BP,ioos:station:wmo:42369:2,2021-08-04T10:39:00Z,27.2131,-90.2871,455.6,7.8,11113222
BP,ioos:station:wmo:42369:2,2021-08-04T10:59:00Z,27.2131,-90.2869,455.0,7.8,11113222
BP,ioos:station:wmo:42369:2,2021-08-04T11:19:00Z,27.2131,-90.2868,454.8,7.8,11113222
BP,ioos:station:wmo:42369:2,2021-08-04T11:39:00Z,27.2135,-90.2845,454.0,7.8,11113222
BP,ioos:station:wmo:42369:2,2021-08-04T11:59:00Z,27.2135,-90.2843,454.1,7.7,11113222
BP,ioos:station:wmo:42369:2,2021-08-04T12:19:00Z,27.2135,-90.2841,452.2,7.7,11113222
BP,ioos:station:wmo:42369:2,2021-08-04T12:39:00Z,27.2135,-90.2840,451.8,7.7,11113222
BP,ioos:station:wmo:42369:2,2021-08-04T12:59:00Z,27.2136,-90.2840,451.0,7.7,11113222
BP,ioos:station:wmo:42369:2,2021-08-04T13:19:00Z,27.2136,-90.2839,449.8,7.7,11113222
BP,ioos:station:wmo:42369:2,2021-08-04T13:39:00Z,27.2136,-90.2838,450.0,7.7,11113222
BP,ioos:station:wmo:42369:2,2021-08-04T13:59:00Z,27.2136,-90.2837,448.5,7.7,11113222
BP,ioos:station:wmo:42369:2,2021-08-04T14:19:00Z,27.2136,-90.2836,448.0,7.6,11113222
BP,ioos:station:wmo:42369:2,2021-08-04T14:59:00Z,27.2136,-90.2836,447.3,7.8,11113222
BP,ioos:station:wmo:42369:2,2021-08-04T15:19:00Z,27.2136,-90.2836,447.1,8.0,11113222
BP,ioos:station:wmo:42369:2,2021-08-04T15:39:00Z,27.2136,-90.2834,446.8,8.0,11113222
BP,ioos:station:wmo:42369:2,2021-08-04T15:59:00Z,27.2136,-90.2834,446.9,8.0,11113222
BP,ioos:station:wmo:42369:2,2021-08-04T16:19:00Z,27.2136,-90.2834,446.9,8.0,11113222
BP,ioos:station:wmo:42369:2,2021-08-04T16:39:00Z,27.2136,-90.2832,447.7,8.0,11113222
BP,ioos:station:wmo:42369:2,2021-08-04T16:59:00Z,27.2136,-90.2832,448.7,7.7,11113222
BP,ioos:station:wmo:42369:2,2021-08-04T17:19:00Z,27.2136,-90.2831,447.6,7.8,11113222
BP,ioos:station:wmo:42369:2,2021-08-04T17:39:00Z,27.2136,-90.2831,447.2,7.8,11113222
BP,ioos:station:wmo:42369:2,2021-08-04T17:59:00Z,27.2136,-90.2830,447.2,8.0,11113222
BP,ioos:station:wmo:42369:2,2021-08-04T18:19:00Z,27.2136,-90.2829,447.2,8.0,11113222
BP,ioos:station:wmo:42369:2,2021-08-04T18:39:00Z,27.2136,-90.2828,446.4,7.8,11113222
BP,ioos:station:wmo:42369:2,2021-08-04T18:59:00Z,27.2137,-90.2826,446.3,7.9,11113222
BP,ioos:station:wmo:42369:2,2021-08-04T19:19:00Z,27.2137,-90.2826,446.1,7.9,11113222
BP,ioos:station:wmo:42369:2,2021-08-04T19:39:00Z,27.2137,-90.2825,446.5,7.7,11113222
BP,ioos:station:wmo:42369:2,2021-08-04T19:59:00Z,27.2134,-90.2846,445.4,7.7,11113222
BP,ioos:station:wmo:42369:2,2021-08-04T20:19:00Z,27.2135,-90.2841,445.4,7.7,11113222
BP,ioos:station:wmo:42369:2,2021-08-04T20:39:00Z,27.2136,-90.2839,445.2,7.6,11113222
BP,ioos:station:wmo:42369:2,2021-08-04T20:59:00Z,27.2136,-90.2836,445.5,7.6,11113222
BP,ioos:station:wmo:42369:2,2021-08-04T21:19:00Z,27.2136,-90.2832,445.0,7.7,11113222
BP,ioos:station:wmo:42369:2,2021-08-04T21:39:00Z,27.2136,-90.2828,444.5,7.7,11113222